• Join FlightAware (Why Join?)
  • Login
  • US Flag 
05:26PM EDT


 

Airport Tracker/Info


-or-


 

Live Flight TrackerFlight Track Log ✈ LOF3424 ✈ 17-Jun-2013 ✈ KORD - KSTL

Flight Track Log - Related Links

Times and Time Zones

All times are in EDT time to prevent confusion due to time zone crossing. See the LOF3424 flight status page for this flight to view local times or setup timezone preferences in your user account.

Time Position Orientation Groundspeed Altitude Reporting Facility
EDT Latitude Longitude Course Direction KTS MPH feet Rate Location/Type
08:08AM 41.9167 -87.9167 180° South 182 209 2,300  Level Chicago TRACON
08:09AM 41.8833 -87.9167 180° South 199 229 4,100 1,860 Climbing Chicago TRACON
08:10AM 41.8114 -87.9239 184° South 232 267 6,200 1,980 Climbing Chicago Center
08:11AM 41.7475 -87.9397 190° South 234 269 8,500 2,160 Climbing Chicago Center
08:12AM 41.6653 -87.9617 191° South 249 287 10,700 1,680 Climbing Chicago Center
08:13AM 41.5858 -87.9825 191° South 285 328 12,000 1,200 Climbing Chicago Center
08:14AM 41.5017 -88.0050 191° South 305 351 13,300 1,080 Climbing Chicago Center
08:15AM 41.4042 -88.0344 193° South 329 379 14,300 1,140 Climbing Chicago Center
08:16AM 41.3050 -88.0644 193° South 350 403 15,700 1,260 Climbing Chicago Center
08:17AM 41.2056 -88.0892 191° South 362 417 17,000 1,200 Climbing Chicago Center
08:18AM 41.1031 -88.1014 185° South 370 426 18,200 1,140 Climbing Chicago Center
08:19AM 40.9950 -88.1158 186° South 384 442 19,400 840 Climbing Chicago Center
08:20AM 40.8636 -88.1297 185° South 395 455 20,000 240 Climbing Chicago Center
08:22AM 40.7453 -88.1442 185° South 423 487 20,000  Level Chicago Center
08:23AM 40.6253 -88.1586 185° South 432 497 20,000  Level Chicago Center
08:24AM 40.5111 -88.1978 195° South 429 494 20,000  Level Chicago Center
08:25AM 40.4000 -88.2517 200° South 427 491 20,000  Level Chicago Center
08:26AM 40.2644 -88.3153 200° South 433 498 20,000  Level Chicago Center
08:27AM 40.1675 -88.3589 199° South 423 487 20,000  Level Chicago Center
08:28AM 40.0556 -88.4133 200° South 427 491 20,000  Level Chicago Center
08:29AM 39.9314 -88.4903 205° Southwest 424 488 20,000  Level Chicago Center
08:30AM 39.8481 -88.5894 222° Southwest 405 466 20,000  Level Chicago Center
08:30AM 39.7981 -88.6511 223° Southwest 404 465 20,000  Level Kansas City Center
08:31AM 39.7139 -88.7522 223° Southwest 408 470 20,000  Level Kansas City Center
08:33AM 39.6303 -88.8506 222° Southwest 407 468 20,000  Level Kansas City Center
08:34AM 39.5458 -88.9511 223° Southwest 408 470 20,000 -840 Level Kansas City Center
08:35AM 39.4631 -89.0503 223° Southwest 407 468 18,400 -1,680 Descending Kansas City Center
08:36AM 39.3828 -89.1417 221° Southwest 397 457 16,600 -1,740 Descending Kansas City Center
08:37AM 39.3058 -89.2322 222° Southwest 385 443 15,000 -1,680 Descending Kansas City Center
08:38AM 39.2306 -89.3208 222° Southwest 375 432 13,300 -1,740 Descending Kansas City Center
08:39AM 39.1408 -89.4261 222° Southwest 365 420 11,400 -1,680 Descending Kansas City Center
08:40AM 39.0703 -89.5081 222° Southwest 343 395 10,000 -1,140 Descending Kansas City Center
08:41AM 39.0200 -89.5917 232° Southwest 274 315 9,200 -1,080 Descending Kansas City Center
08:42AM 38.9928 -89.6825 249° West 275 316 7,800 -1,380 Descending Kansas City Center
08:43AM 38.9647 -89.7739 248° West 276 318 6,400 -1,440 Descending Kansas City Center
08:44AM 38.9339 -89.8667 247° West 266 306 5,000 -720 Descending Kansas City Center
08:45AM 38.9122 -89.9406 249° West 263 303 5,000  Level Kansas City Center
08:46AM 38.8886 -90.0214 249° West 250 288 5,000 -240 Level Kansas City Center
08:47AM 38.8525 -90.1156 244° Southwest 246 283 4,600 -900 Descending Kansas City Center
08:48AM 38.8219 -90.1936 243° Southwest 245 282 3,200 -1,200 Descending Kansas City Center
08:49AM 38.7964 -90.2572 243° Southwest 216 249 2,200 -900 Descending Kansas City Center
08:50AM 38.7764 -90.3069 243° Southwest 177 204 1,400 -840 Descending Kansas City Center
08:51AM 38.7583 -90.3536 244° Southwest 158 182 600 -840 Descending Kansas City Center